{"data":{"norad_id":62811,"epoch":"2026-05-25T04:24:55.564416Z","epoch_age_seconds":73242,"freshness":"FRESH","line1":"1 62811U 25018F   26145.18397644  .00016702  00000+0  57473-3 0  9998","line2":"2 62811  53.1607 314.0266 0001780  90.8003 269.3202 15.30202773 74881","mean_motion":15.30202773,"eccentricity":0.000178,"inclination_deg":53.1607,"raan_deg":314.0266,"arg_perigee_deg":90.8003,"mean_anomaly_deg":269.3202,"bstar":0.00057473,"rev_number":7488,"period_min":94.105175170794,"perigee_km":473.98689455909,"apogee_km":476.42668494824,"semimajor_km":6853.3437897537,"source":"CELESTRAK","updated_at":"2026-05-25T13:38:19.773060Z"}}